Location: C.E.K. Mees Observatory
(42.7003°N, 77.4088°W)
Time: 21:54:40
(UTC-05:00)

Envisat - Pass Details

Date: 26 November 2019
Orbit: 764 x 766 km, 98.1° (Epoch: 07 December)

Event Time Altitude Azimuth Distance (km) Brightness Sun altitude
Rises 19:36:18 0° 216° (SW) 3,218 6.7 -32.1°
Reaches altitude 10° 19:39:56 10° 244° (WSW) 2,298 6.1 -32.8°
Maximum altitude 19:42:15 13° 271° (W) 2,094 6.0 -33.2°
Drops below altitude 10° 19:44:34 10° 299° (WNW) 2,306 6.1 -33.6°
Sets 19:48:15 0° 326° (NNW) 3,238 6.7 -34.3°
